Regional Weather Roundup
Issued by NWS Kansas City/Pleasant Hill, MO

Home | Current Version | Previous Version | Text Only | Print | Product List | Glossary On
Versions: 1 2 3 4 5 6 7 8 9 10 11 12 13 14 15 16 17 18 19 20 21 22 23 24 25 26 27 28 29 30 31 32 33 34 35 36 37 38 39 40 41 42 43 44 45 46 47 48 49 50
000
ASUS43 KEAX 031115
RWREAX

WEATHER ROUNDUP FOR EASTERN KANSAS AND NORTHWEST MISSOURI
NATIONAL WEATHER SERVICE KANSAS CITY/PLEASANT HILL MO
600 AM CDT TUE AUG 03 2021

KSZ040-057-103>105-MOZ028-029-037-043-031200-
...KANSAS CITY METROPOLITAN AREA...

CITY           SKY/WX    TMP DP  RH WIND       PRES   REMARKS
K.C. INTL      PTCLDY    63  57  81 CALM      30.13R
K.C. DOWNTOWN  CLEAR     63  58  83 N3        30.12R
LEES SUMMIT    CLEAR     61  59  93 NE3       30.13R
OLATHE - IXD   CLEAR     62  56  80 NE6       30.13S
OLATHE - OJC   CLEAR     63  58  83 NE5       30.12S
LAWRENCE       CLEAR     56  55  97 NW3       30.12S

$$

MOZ001>008-011>017-020>025-030>033-038>040-044>046-053-054-031200-
...NORTHERN AND CENTRAL MISSOURI...

CITY           SKY/WX    TMP DP  RH WIND       PRES   REMARKS
ST. JOSEPH     PTCLDY    54  53  97 CALM      30.14R FOG
MOSBY          CLEAR     55  55 100 CALM      30.13R FOG
HARRISONVILLE  CLEAR     63  61  94 CALM      30.14R
WHITEMAN AFB   CLEAR     61  59  94 CALM      30.07S
CLINTON        PTCLDY    63  63 100 CALM      30.10R FOG
SEDALIA        MOCLDY    65  61  87 E5        30.11S
MARSHALL       CLEAR     59  59 100 CALM      30.13R
CHILLICOTHE      N/A     59  57  93 CALM      30.14S
MOBERLY        CLEAR     59  55  88 CALM      30.14S
KIRKSVILLE     CLEAR     57  56  96 CALM      30.14S FOG

$$

MOZ041-047>049-056>058-063>065-088>090-097-031200-
...EASTERN AND SOUTHERN MISSOURI...

CITY           SKY/WX    TMP DP  RH WIND       PRES   REMARKS
ST. LOUIS INTL PTCLDY    66  60  81 CALM      30.10S
SPIRIT OF STL  CLEAR     60  58  92 CALM      30.09S
COLUMBIA       MOCLDY    65  61  87 E6        30.11S
JEFFERSON CITY CLOUDY    68  60  75 CALM      30.10S
MEXICO         CLOUDY    59  59 100 CALM      30.12S FOG
HANNIBAL       CLOUDY    61  61 100 CALM      30.12F FOG
ROLLA          CLEAR     60  59  96 CALM      30.11S
LEBANON        PTCLDY    63  61  94 CALM      30.12S
OSAGE BEACH    CLEAR     60  59  96 CALM      30.11R
SPRINGFIELD    CLEAR     65  62  90 E5        30.08S
BRANSON        MOCLDY    64  64 100 CALM      30.10S
JOPLIN         CLEAR     61  60  97 NE3       30.09R
WEST PLAINS    CLOUDY    65  62  90 CALM      30.11S
SIKESTON       CLEAR     63  61  94 N3        30.07R

$$

IAZ060-094-KSZ022-034>040-054-083-096-NEZ052-066-093-031200-
...KANSAS...SOUTHEAST NEBRASKA AND IOWA...

CITY           SKY/WX    TMP DP  RH WIND       PRES   REMARKS
TOPEKA         CLEAR     57  55  93 CALM      30.12S FOG
MANHATTAN      CLEAR     59  57  93 CALM      30.13R FOG
EMPORIA        CLOUDY    61  60  97 CALM      30.12R FOG
OTTAWA         MOCLDY    59  59 100 N3        30.10S
CHANUTE        CLEAR     65  62  90 NE3       30.10R
SALINA         CLEAR     63  57  81 E3        30.13R
WICHITA        CLEAR     65  57  75 NE5       30.10S
OMAHA          PTCLDY    59  58  96 CALM      30.13S
LINCOLN        CLEAR     55  52  89 CALM      30.15S
FALLS CITY     CLEAR     56  55  97 CALM      30.13S
LAMONI         CLEAR     59  56  89 CALM      30.14S
DES MOINES     CLEAR     61  58  90 CALM      30.13S

$$




USA.gov is the U.S. government's official web portal to all federal, state and local government web resources and services.